owner,sensor,date,latitude,longitude,vertical_datum,sea_water_practical_salinity,qcFlag 
ENP,ioos.station.NOAA.NDBC:WRBF1:1,2014-11-01T00:00:00Z,25.0720,-80.7350,1.5,41.65,1111122 
ENP,ioos.station.NOAA.NDBC:WRBF1:1,2014-11-01T01:00:00Z,25.0720,-80.7350,1.5,41.77,1111122 
ENP,ioos.station.NOAA.NDBC:WRBF1:1,2014-11-01T02:00:00Z,25.0720,-80.7350,1.5,41.9,1111122 
ENP,ioos.station.NOAA.NDBC:WRBF1:1,2014-11-01T04:00:00Z,25.0720,-80.7350,1.5,41.88,1111122 
ENP,ioos.station.NOAA.NDBC:WRBF1:1,2014-11-01T05:00:00Z,25.0720,-80.7350,1.5,41.85,1111122 
ENP,ioos.station.NOAA.NDBC:WRBF1:1,2014-11-01T07:00:00Z,25.0720,-80.7350,1.5,41.83,1111122 
ENP,ioos.station.NOAA.NDBC:WRBF1:1,2014-11-01T08:00:00Z,25.0720,-80.7350,1.5,41.86,1111122 
ENP,ioos.station.NOAA.NDBC:WRBF1:1,2014-11-01T10:00:00Z,25.0720,-80.7350,1.5,41.98,1111122 
ENP,ioos.station.NOAA.NDBC:WRBF1:1,2014-11-01T11:00:00Z,25.0720,-80.7350,1.5,41.95,1111122 
ENP,ioos.station.NOAA.NDBC:WRBF1:1,2014-11-01T12:00:00Z,25.0720,-80.7350,1.5,41.95,1111122 
ENP,ioos.station.NOAA.NDBC:WRBF1:1,2014-11-01T13:00:00Z,25.0720,-80.7350,1.5,41.95,1111122 
ENP,ioos.station.NOAA.NDBC:WRBF1:1,2014-11-01T14:00:00Z,25.0720,-80.7350,1.5,41.95,1111122 
ENP,ioos.station.NOAA.NDBC:WRBF1:1,2014-11-01T15:00:00Z,25.0720,-80.7350,1.5,41.98,1111122 
ENP,ioos.station.NOAA.NDBC:WRBF1:1,2014-11-01T16:00:00Z,25.0720,-80.7350,1.5,41.94,1111122 
ENP,ioos.station.NOAA.NDBC:WRBF1:1,2014-11-01T18:00:00Z,25.0720,-80.7350,1.5,41.96,1111122 
ENP,ioos.station.NOAA.NDBC:WRBF1:1,2014-11-01T19:00:00Z,25.0720,-80.7350,1.5,41.89,1111122 
ENP,ioos.station.NOAA.NDBC:WRBF1:1,2014-11-01T20:00:00Z,25.0720,-80.7350,1.5,41.86,1111122 
ENP,ioos.station.NOAA.NDBC:WRBF1:1,2014-11-01T22:00:00Z,25.0720,-80.7350,1.5,41.9,1111122 
ENP,ioos.station.NOAA.NDBC:WRBF1:1,2014-11-01T23:00:00Z,25.0720,-80.7350,1.5,41.94,1111122 
ENP,ioos.station.NOAA.NDBC:WRBF1:1,2014-11-02T00:00:00Z,25.0720,-80.7350,1.5,41.95,1111122 
ENP,ioos.station.NOAA.NDBC:WRBF1:1,2014-11-02T02:00:00Z,25.0720,-80.7350,1.5,42.02,1111122 
ENP,ioos.station.NOAA.NDBC:WRBF1:1,2014-11-02T03:00:00Z,25.0720,-80.7350,1.5,41.97,1111122 
ENP,ioos.station.NOAA.NDBC:WRBF1:1,2014-11-02T05:00:00Z,25.0720,-80.7350,1.5,42.06,1111122 
ENP,ioos.station.NOAA.NDBC:WRBF1:1,2014-11-02T06:00:00Z,25.0720,-80.7350,1.5,42.12,1111122 
ENP,ioos.station.NOAA.NDBC:WRBF1:1,2014-11-02T07:00:00Z,25.0720,-80.7350,1.5,42.14,1111122 
ENP,ioos.station.NOAA.NDBC:WRBF1:1,2014-11-02T09:00:00Z,25.0720,-80.7350,1.5,42.07,1111122 
ENP,ioos.station.NOAA.NDBC:WRBF1:1,2014-11-02T10:00:00Z,25.0720,-80.7350,1.5,42.0,1111122 
ENP,ioos.station.NOAA.NDBC:WRBF1:1,2014-11-02T11:00:00Z,25.0720,-80.7350,1.5,41.99,1111122 
ENP,ioos.station.NOAA.NDBC:WRBF1:1,2014-11-02T13:00:00Z,25.0720,-80.7350,1.5,42.02,1111122 
ENP,ioos.station.NOAA.NDBC:WRBF1:1,2014-11-02T14:00:00Z,25.0720,-80.7350,1.5,42.05,1111122 
ENP,ioos.station.NOAA.NDBC:WRBF1:1,2014-11-02T15:00:00Z,25.0720,-80.7350,1.5,42.1,1111122 
ENP,ioos.station.NOAA.NDBC:WRBF1:1,2014-11-02T16:00:00Z,25.0720,-80.7350,1.5,42.13,1111122 
ENP,ioos.station.NOAA.NDBC:WRBF1:1,2014-11-02T17:00:00Z,25.0720,-80.7350,1.5,42.15,1111122 
ENP,ioos.station.NOAA.NDBC:WRBF1:1,2014-11-02T18:00:00Z,25.0720,-80.7350,1.5,42.17,1111122 
ENP,ioos.station.NOAA.NDBC:WRBF1:1,2014-11-02T19:00:00Z,25.0720,-80.7350,1.5,42.18,1111122 
ENP,ioos.station.NOAA.NDBC:WRBF1:1,2014-11-02T21:00:00Z,25.0720,-80.7350,1.5,42.18,1111122 
ENP,ioos.station.NOAA.NDBC:WRBF1:1,2014-11-02T22:00:00Z,25.0720,-80.7350,1.5,42.14,1111122 
ENP,ioos.station.NOAA.NDBC:WRBF1:1,2014-11-03T00:00:00Z,25.0720,-80.7350,1.5,42.11,1111122 
ENP,ioos.station.NOAA.NDBC:WRBF1:1,2014-11-03T01:00:00Z,25.0720,-80.7350,1.5,42.11,1111122 
ENP,ioos.station.NOAA.NDBC:WRBF1:1,2014-11-03T02:00:00Z,25.0720,-80.7350,1.5,42.15,1111122 
ENP,ioos.station.NOAA.NDBC:WRBF1:1,2014-11-03T03:00:00Z,25.0720,-80.7350,1.5,42.26,1111122 
ENP,ioos.station.NOAA.NDBC:WRBF1:1,2014-11-03T05:00:00Z,25.0720,-80.7350,1.5,42.59,1111122 
ENP,ioos.station.NOAA.NDBC:WRBF1:1,2014-11-03T06:00:00Z,25.0720,-80.7350,1.5,42.26,1111122 
ENP,ioos.station.NOAA.NDBC:WRBF1:1,2014-11-03T08:00:00Z,25.0720,-80.7350,1.5,42.24,1111122 
ENP,ioos.station.NOAA.NDBC:WRBF1:1,2014-11-03T10:00:00Z,25.0720,-80.7350,1.5,42.08,1111122 
ENP,ioos.station.NOAA.NDBC:WRBF1:1,2014-11-03T11:00:00Z,25.0720,-80.7350,1.5,42.17,1111122 
ENP,ioos.station.NOAA.NDBC:WRBF1:1,2014-11-03T13:00:00Z,25.0720,-80.7350,1.5,42.21,1111122 
ENP,ioos.station.NOAA.NDBC:WRBF1:1,2014-11-03T14:00:00Z,25.0720,-80.7350,1.5,42.09,1111122 
ENP,ioos.station.NOAA.NDBC:WRBF1:1,2014-11-03T15:00:00Z,25.0720,-80.7350,1.5,41.9,1111122 
ENP,ioos.station.NOAA.NDBC:WRBF1:1,2014-11-03T16:00:00Z,25.0720,-80.7350,1.5,41.93,1111122 
ENP,ioos.station.NOAA.NDBC:WRBF1:1,2014-11-03T17:00:00Z,25.0720,-80.7350,1.5,41.95,1111122 
ENP,ioos.station.NOAA.NDBC:WRBF1:1,2014-11-03T18:00:00Z,25.0720,-80.7350,1.5,41.98,1111122 
ENP,ioos.station.NOAA.NDBC:WRBF1:1,2014-11-03T19:00:00Z,25.0720,-80.7350,1.5,41.97,1111122 
ENP,ioos.station.NOAA.NDBC:WRBF1:1,2014-11-03T21:00:00Z,25.0720,-80.7350,1.5,41.99,1111122 
ENP,ioos.station.NOAA.NDBC:WRBF1:1,2014-11-03T22:00:00Z,25.0720,-80.7350,1.5,42.02,1111122 
ENP,ioos.station.NOAA.NDBC:WRBF1:1,2014-11-03T23:00:00Z,25.0720,-80.7350,1.5,42.1,1111122 
ENP,ioos.station.NOAA.NDBC:WRBF1:1,2014-11-04T01:00:00Z,25.0720,-80.7350,1.5,42.27,1111122 
ENP,ioos.station.NOAA.NDBC:WRBF1:1,2014-11-04T02:00:00Z,25.0720,-80.7350,1.5,42.33,1111122 
ENP,ioos.station.NOAA.NDBC:WRBF1:1,2014-11-04T03:00:00Z,25.0720,-80.7350,1.5,42.4,1111122 
ENP,ioos.station.NOAA.NDBC:WRBF1:1,2014-11-04T05:00:00Z,25.0720,-80.7350,1.5,42.49,1111122 
ENP,ioos.station.NOAA.NDBC:WRBF1:1,2014-11-04T06:00:00Z,25.0720,-80.7350,1.5,42.53,1111122 
ENP,ioos.station.NOAA.NDBC:WRBF1:1,2014-11-04T08:00:00Z,25.0720,-80.7350,1.5,42.56,1111122 
ENP,ioos.station.NOAA.NDBC:WRBF1:1,2014-11-04T09:00:00Z,25.0720,-80.7350,1.5,42.58,1111122 
ENP,ioos.station.NOAA.NDBC:WRBF1:1,2014-11-04T10:00:00Z,25.0720,-80.7350,1.5,42.58,1111122 
ENP,ioos.station.NOAA.NDBC:WRBF1:1,2014-11-04T11:00:00Z,25.0720,-80.7350,1.5,42.57,1111122 
ENP,ioos.station.NOAA.NDBC:WRBF1:1,2014-11-04T13:00:00Z,25.0720,-80.7350,1.5,42.54,1111122 
ENP,ioos.station.NOAA.NDBC:WRBF1:1,2014-11-04T14:00:00Z,25.0720,-80.7350,1.5,42.54,1111122 
ENP,ioos.station.NOAA.NDBC:WRBF1:1,2014-11-04T16:00:00Z,25.0720,-80.7350,1.5,42.54,1111122 
ENP,ioos.station.NOAA.NDBC:WRBF1:1,2014-11-04T18:00:00Z,25.0720,-80.7350,1.5,42.59,1111122 
ENP,ioos.station.NOAA.NDBC:WRBF1:1,2014-11-04T19:00:00Z,25.0720,-80.7350,1.5,42.61,1111122 
ENP,ioos.station.NOAA.NDBC:WRBF1:1,2014-11-04T21:00:00Z,25.0720,-80.7350,1.5,42.64,1111122 
ENP,ioos.station.NOAA.NDBC:WRBF1:1,2014-11-04T22:00:00Z,25.0720,-80.7350,1.5,42.6,1111122 
ENP,ioos.station.NOAA.NDBC:WRBF1:1,2014-11-04T23:00:00Z,25.0720,-80.7350,1.5,42.6,1111122 
ENP,ioos.station.NOAA.NDBC:WRBF1:1,2014-11-05T01:00:00Z,25.0720,-80.7350,1.5,42.56,1111122 
ENP,ioos.station.NOAA.NDBC:WRBF1:1,2014-11-05T02:00:00Z,25.0720,-80.7350,1.5,42.4,1111122 
ENP,ioos.station.NOAA.NDBC:WRBF1:1,2014-11-05T03:00:00Z,25.0720,-80.7350,1.5,42.2,1111122 
ENP,ioos.station.NOAA.NDBC:WRBF1:1,2014-11-05T04:00:00Z,25.0720,-80.7350,1.5,42.03,1111122 
ENP,ioos.station.NOAA.NDBC:WRBF1:1,2014-11-05T06:00:00Z,25.0720,-80.7350,1.5,41.7,1111122 
ENP,ioos.station.NOAA.NDBC:WRBF1:1,2014-11-05T07:00:00Z,25.0720,-80.7350,1.5,41.64,1111122 
ENP,ioos.station.NOAA.NDBC:WRBF1:1,2014-11-05T09:00:00Z,25.0720,-80.7350,1.5,41.65,1111122 
ENP,ioos.station.NOAA.NDBC:WRBF1:1,2014-11-05T10:00:00Z,25.0720,-80.7350,1.5,41.66,1111122 
ENP,ioos.station.NOAA.NDBC:WRBF1:1,2014-11-05T11:00:00Z,25.0720,-80.7350,1.5,41.67,1111122 
ENP,ioos.station.NOAA.NDBC:WRBF1:1,2014-11-05T13:00:00Z,25.0720,-80.7350,1.5,41.33,1111122 
ENP,ioos.station.NOAA.NDBC:WRBF1:1,2014-11-05T14:00:00Z,25.0720,-80.7350,1.5,41.19,1111122 
ENP,ioos.station.NOAA.NDBC:WRBF1:1,2014-11-05T15:00:00Z,25.0720,-80.7350,1.5,41.09,1111122 
ENP,ioos.station.NOAA.NDBC:WRBF1:1,2014-11-05T16:00:00Z,25.0720,-80.7350,1.5,41.07,1111122 
ENP,ioos.station.NOAA.NDBC:WRBF1:1,2014-11-05T17:00:00Z,25.0720,-80.7350,1.5,41.09,1111122 
ENP,ioos.station.NOAA.NDBC:WRBF1:1,2014-11-05T19:00:00Z,25.0720,-80.7350,1.5,41.15,1111122 
ENP,ioos.station.NOAA.NDBC:WRBF1:1,2014-11-05T21:00:00Z,25.0720,-80.7350,1.5,41.2,1111122 
ENP,ioos.station.NOAA.NDBC:WRBF1:1,2014-11-05T22:00:00Z,25.0720,-80.7350,1.5,41.17,1111122 
ENP,ioos.station.NOAA.NDBC:WRBF1:1,2014-11-05T23:00:00Z,25.0720,-80.7350,1.5,41.11,1111122 
ENP,ioos.station.NOAA.NDBC:WRBF1:1,2014-11-06T00:00:00Z,25.0720,-80.7350,1.5,41.08,1111122 
ENP,ioos.station.NOAA.NDBC:WRBF1:1,2014-11-06T01:00:00Z,25.0720,-80.7350,1.5,41.08,1111122 
ENP,ioos.station.NOAA.NDBC:WRBF1:1,2014-11-06T02:00:00Z,25.0720,-80.7350,1.5,41.09,1111122 
ENP,ioos.station.NOAA.NDBC:WRBF1:1,2014-11-06T03:00:00Z,25.0720,-80.7350,1.5,41.09,1111122 
ENP,ioos.station.NOAA.NDBC:WRBF1:1,2014-11-06T05:00:00Z,25.0720,-80.7350,1.5,41.11,1111122 
ENP,ioos.station.NOAA.NDBC:WRBF1:1,2014-11-06T06:00:00Z,25.0720,-80.7350,1.5,41.11,1111122 
ENP,ioos.station.NOAA.NDBC:WRBF1:1,2014-11-06T07:00:00Z,25.0720,-80.7350,1.5,41.11,1111122 
ENP,ioos.station.NOAA.NDBC:WRBF1:1,2014-11-06T09:00:00Z,25.0720,-80.7350,1.5,41.11,1111122 
ENP,ioos.station.NOAA.NDBC:WRBF1:1,2014-11-06T10:00:00Z,25.0720,-80.7350,1.5,41.11,1111122 
ENP,ioos.station.NOAA.NDBC:WRBF1:1,2014-11-06T11:00:00Z,25.0720,-80.7350,1.5,41.09,1111122 
ENP,ioos.station.NOAA.NDBC:WRBF1:1,2014-11-06T12:00:00Z,25.0720,-80.7350,1.5,41.07,1111122 
ENP,ioos.station.NOAA.NDBC:WRBF1:1,2014-11-06T13:00:00Z,25.0720,-80.7350,1.5,41.04,1111122 
ENP,ioos.station.NOAA.NDBC:WRBF1:1,2014-11-06T14:00:00Z,25.0720,-80.7350,1.5,41.04,1111122 
ENP,ioos.station.NOAA.NDBC:WRBF1:1,2014-11-06T15:00:00Z,25.0720,-80.7350,1.5,41.04,1111122 
ENP,ioos.station.NOAA.NDBC:WRBF1:1,2014-11-06T17:00:00Z,25.0720,-80.7350,1.5,41.06,1111122 
ENP,ioos.station.NOAA.NDBC:WRBF1:1,2014-11-06T18:00:00Z,25.0720,-80.7350,1.5,41.07,1111122 
ENP,ioos.station.NOAA.NDBC:WRBF1:1,2014-11-06T19:00:00Z,25.0720,-80.7350,1.5,41.06,1111122 
ENP,ioos.station.NOAA.NDBC:WRBF1:1,2014-11-06T21:00:00Z,25.0720,-80.7350,1.5,41.08,1111122 
ENP,ioos.station.NOAA.NDBC:WRBF1:1,2014-11-06T22:00:00Z,25.0720,-80.7350,1.5,41.08,1111122 
ENP,ioos.station.NOAA.NDBC:WRBF1:1,2014-11-06T23:00:00Z,25.0720,-80.7350,1.5,41.12,1111122 
ENP,ioos.station.NOAA.NDBC:WRBF1:1,2014-11-07T01:00:00Z,25.0720,-80.7350,1.5,41.28,1111122 
ENP,ioos.station.NOAA.NDBC:WRBF1:1,2014-11-07T02:00:00Z,25.0720,-80.7350,1.5,41.34,1111122 
ENP,ioos.station.NOAA.NDBC:WRBF1:1,2014-11-07T03:00:00Z,25.0720,-80.7350,1.5,41.38,1111122 
ENP,ioos.station.NOAA.NDBC:WRBF1:1,2014-11-07T05:00:00Z,25.0720,-80.7350,1.5,41.42,1111122 
ENP,ioos.station.NOAA.NDBC:WRBF1:1,2014-11-07T06:00:00Z,25.0720,-80.7350,1.5,41.42,1111122 
ENP,ioos.station.NOAA.NDBC:WRBF1:1,2014-11-07T07:00:00Z,25.0720,-80.7350,1.5,41.42,1111122 
ENP,ioos.station.NOAA.NDBC:WRBF1:1,2014-11-07T09:00:00Z,25.0720,-80.7350,1.5,41.42,1111122 
ENP,ioos.station.NOAA.NDBC:WRBF1:1,2014-11-07T10:00:00Z,25.0720,-80.7350,1.5,41.42,1111122 
ENP,ioos.station.NOAA.NDBC:WRBF1:1,2014-11-07T11:00:00Z,25.0720,-80.7350,1.5,41.42,1111122 
ENP,ioos.station.NOAA.NDBC:WRBF1:1,2014-11-07T12:00:00Z,25.0720,-80.7350,1.5,41.43,1111122 
ENP,ioos.station.NOAA.NDBC:WRBF1:1,2014-11-07T13:00:00Z,25.0720,-80.7350,1.5,41.44,1111122 
ENP,ioos.station.NOAA.NDBC:WRBF1:1,2014-11-07T14:00:00Z,25.0720,-80.7350,1.5,41.45,1111122 
ENP,ioos.station.NOAA.NDBC:WRBF1:1,2014-11-07T16:00:00Z,25.0720,-80.7350,1.5,41.48,1111122 
ENP,ioos.station.NOAA.NDBC:WRBF1:1,2014-11-07T17:00:00Z,25.0720,-80.7350,1.5,41.48,1111122 
ENP,ioos.station.NOAA.NDBC:WRBF1:1,2014-11-07T18:00:00Z,25.0720,-80.7350,1.5,41.5,1111122 
ENP,ioos.station.NOAA.NDBC:WRBF1:1,2014-11-07T19:00:00Z,25.0720,-80.7350,1.5,41.51,1111122 
ENP,ioos.station.NOAA.NDBC:WRBF1:1,2014-11-07T21:00:00Z,25.0720,-80.7350,1.5,41.53,1111122 
ENP,ioos.station.NOAA.NDBC:WRBF1:1,2014-11-07T22:00:00Z,25.0720,-80.7350,1.5,41.55,1111122 
ENP,ioos.station.NOAA.NDBC:WRBF1:1,2014-11-07T23:00:00Z,25.0720,-80.7350,1.5,41.59,1111122 
ENP,ioos.station.NOAA.NDBC:WRBF1:1,2014-11-08T01:00:00Z,25.0720,-80.7350,1.5,41.64,1111122 
ENP,ioos.station.NOAA.NDBC:WRBF1:1,2014-11-08T02:00:00Z,25.0720,-80.7350,1.5,41.67,1111122 
ENP,ioos.station.NOAA.NDBC:WRBF1:1,2014-11-08T03:00:00Z,25.0720,-80.7350,1.5,41.69,1111122 
ENP,ioos.station.NOAA.NDBC:WRBF1:1,2014-11-08T05:00:00Z,25.0720,-80.7350,1.5,41.76,1111122 
ENP,ioos.station.NOAA.NDBC:WRBF1:1,2014-11-08T07:00:00Z,25.0720,-80.7350,1.5,41.81,1111122 
ENP,ioos.station.NOAA.NDBC:WRBF1:1,2014-11-08T09:00:00Z,25.0720,-80.7350,1.5,41.83,1111122 
ENP,ioos.station.NOAA.NDBC:WRBF1:1,2014-11-08T10:00:00Z,25.0720,-80.7350,1.5,41.85,1111122 
ENP,ioos.station.NOAA.NDBC:WRBF1:1,2014-11-08T11:00:00Z,25.0720,-80.7350,1.5,41.88,1111122 
ENP,ioos.station.NOAA.NDBC:WRBF1:1,2014-11-08T12:00:00Z,25.0720,-80.7350,1.5,41.88,1111122 
ENP,ioos.station.NOAA.NDBC:WRBF1:1,2014-11-08T13:00:00Z,25.0720,-80.7350,1.5,41.91,1111122 
ENP,ioos.station.NOAA.NDBC:WRBF1:1,2014-11-08T14:00:00Z,25.0720,-80.7350,1.5,41.93,1111122 
ENP,ioos.station.NOAA.NDBC:WRBF1:1,2014-11-08T16:00:00Z,25.0720,-80.7350,1.5,41.96,1111122 
ENP,ioos.station.NOAA.NDBC:WRBF1:1,2014-11-08T17:00:00Z,25.0720,-80.7350,1.5,41.98,1111122 
ENP,ioos.station.NOAA.NDBC:WRBF1:1,2014-11-08T19:00:00Z,25.0720,-80.7350,1.5,42.02,1111122 
ENP,ioos.station.NOAA.NDBC:WRBF1:1,2014-11-08T20:00:00Z,25.0720,-80.7350,1.5,42.04,1111122 
ENP,ioos.station.NOAA.NDBC:WRBF1:1,2014-11-08T21:00:00Z,25.0720,-80.7350,1.5,42.06,1111122 
ENP,ioos.station.NOAA.NDBC:WRBF1:1,2014-11-08T22:00:00Z,25.0720,-80.7350,1.5,42.08,1111122 
ENP,ioos.station.NOAA.NDBC:WRBF1:1,2014-11-09T00:00:00Z,25.0720,-80.7350,1.5,42.12,1111122 
ENP,ioos.station.NOAA.NDBC:WRBF1:1,2014-11-09T01:00:00Z,25.0720,-80.7350,1.5,42.16,1111122 
ENP,ioos.station.NOAA.NDBC:WRBF1:1,2014-11-09T02:00:00Z,25.0720,-80.7350,1.5,42.2,1111122 
ENP,ioos.station.NOAA.NDBC:WRBF1:1,2014-11-09T03:00:00Z,25.0720,-80.7350,1.5,42.23,1111122 
ENP,ioos.station.NOAA.NDBC:WRBF1:1,2014-11-09T05:00:00Z,25.0720,-80.7350,1.5,42.29,1111122 
ENP,ioos.station.NOAA.NDBC:WRBF1:1,2014-11-09T06:00:00Z,25.0720,-80.7350,1.5,42.33,1111122 
ENP,ioos.station.NOAA.NDBC:WRBF1:1,2014-11-09T07:00:00Z,25.0720,-80.7350,1.5,42.36,1111122 
ENP,ioos.station.NOAA.NDBC:WRBF1:1,2014-11-09T09:00:00Z,25.0720,-80.7350,1.5,42.42,1111122 
ENP,ioos.station.NOAA.NDBC:WRBF1:1,2014-11-09T10:00:00Z,25.0720,-80.7350,1.5,42.47,1111122 
ENP,ioos.station.NOAA.NDBC:WRBF1:1,2014-11-09T11:00:00Z,25.0720,-80.7350,1.5,42.82,1111122 
ENP,ioos.station.NOAA.NDBC:WRBF1:1,2014-11-09T14:00:00Z,25.0720,-80.7350,1.5,43.03,1111122 
ENP,ioos.station.NOAA.NDBC:WRBF1:1,2014-11-09T15:00:00Z,25.0720,-80.7350,1.5,42.8,1111122 
ENP,ioos.station.NOAA.NDBC:WRBF1:1,2014-11-09T17:00:00Z,25.0720,-80.7350,1.5,42.66,1111122 
ENP,ioos.station.NOAA.NDBC:WRBF1:1,2014-11-09T18:00:00Z,25.0720,-80.7350,1.5,42.61,1111122 
ENP,ioos.station.NOAA.NDBC:WRBF1:1,2014-11-09T19:00:00Z,25.0720,-80.7350,1.5,42.53,1111122 
ENP,ioos.station.NOAA.NDBC:WRBF1:1,2014-11-09T20:00:00Z,25.0720,-80.7350,1.5,42.4,1111122 
ENP,ioos.station.NOAA.NDBC:WRBF1:1,2014-11-09T21:00:00Z,25.0720,-80.7350,1.5,42.31,1111122 
ENP,ioos.station.NOAA.NDBC:WRBF1:1,2014-11-09T22:00:00Z,25.0720,-80.7350,1.5,42.24,1111122 
ENP,ioos.station.NOAA.NDBC:WRBF1:1,2014-11-10T00:00:00Z,25.0720,-80.7350,1.5,42.14,1111122 
ENP,ioos.station.NOAA.NDBC:WRBF1:1,2014-11-10T01:00:00Z,25.0720,-80.7350,1.5,42.15,1111122 
ENP,ioos.station.NOAA.NDBC:WRBF1:1,2014-11-10T02:00:00Z,25.0720,-80.7350,1.5,42.14,1111122 
ENP,ioos.station.NOAA.NDBC:WRBF1:1,2014-11-10T03:00:00Z,25.0720,-80.7350,1.5,42.15,1111122 
ENP,ioos.station.NOAA.NDBC:WRBF1:1,2014-11-10T04:00:00Z,25.0720,-80.7350,1.5,42.18,1111122 
ENP,ioos.station.NOAA.NDBC:WRBF1:1,2014-11-10T06:00:00Z,25.0720,-80.7350,1.5,42.21,1111122 
ENP,ioos.station.NOAA.NDBC:WRBF1:1,2014-11-10T08:00:00Z,25.0720,-80.7350,1.5,42.29,1111122 
ENP,ioos.station.NOAA.NDBC:WRBF1:1,2014-11-10T09:00:00Z,25.0720,-80.7350,1.5,42.27,1111122 
ENP,ioos.station.NOAA.NDBC:WRBF1:1,2014-11-10T10:00:00Z,25.0720,-80.7350,1.5,42.22,1111122 
ENP,ioos.station.NOAA.NDBC:WRBF1:1,2014-11-10T11:00:00Z,25.0720,-80.7350,1.5,42.23,1111122 
ENP,ioos.station.NOAA.NDBC:WRBF1:1,2014-11-10T12:00:00Z,25.0720,-80.7350,1.5,42.27,1111122 
ENP,ioos.station.NOAA.NDBC:WRBF1:1,2014-11-10T13:00:00Z,25.0720,-80.7350,1.5,42.34,1111122 
ENP,ioos.station.NOAA.NDBC:WRBF1:1,2014-11-10T14:00:00Z,25.0720,-80.7350,1.5,42.34,1111122 
ENP,ioos.station.NOAA.NDBC:WRBF1:1,2014-11-10T16:00:00Z,25.0720,-80.7350,1.5,42.33,1111122 
ENP,ioos.station.NOAA.NDBC:WRBF1:1,2014-11-10T17:00:00Z,25.0720,-80.7350,1.5,42.32,1111122 
ENP,ioos.station.NOAA.NDBC:WRBF1:1,2014-11-10T18:00:00Z,25.0720,-80.7350,1.5,42.3,1111122 
ENP,ioos.station.NOAA.NDBC:WRBF1:1,2014-11-10T20:00:00Z,25.0720,-80.7350,1.5,42.34,1111122 
ENP,ioos.station.NOAA.NDBC:WRBF1:1,2014-11-10T21:00:00Z,25.0720,-80.7350,1.5,42.36,1111122 
ENP,ioos.station.NOAA.NDBC:WRBF1:1,2014-11-10T22:00:00Z,25.0720,-80.7350,1.5,42.36,1111122 
ENP,ioos.station.NOAA.NDBC:WRBF1:1,2014-11-10T23:00:00Z,25.0720,-80.7350,1.5,42.36,1111122 
ENP,ioos.station.NOAA.NDBC:WRBF1:1,2014-11-11T01:00:00Z,25.0720,-80.7350,1.5,42.4,1111122 
ENP,ioos.station.NOAA.NDBC:WRBF1:1,2014-11-11T02:00:00Z,25.0720,-80.7350,1.5,42.41,1111122 
ENP,ioos.station.NOAA.NDBC:WRBF1:1,2014-11-11T03:00:00Z,25.0720,-80.7350,1.5,42.45,1111122 
ENP,ioos.station.NOAA.NDBC:WRBF1:1,2014-11-11T05:00:00Z,25.0720,-80.7350,1.5,42.46,1111122 
ENP,ioos.station.NOAA.NDBC:WRBF1:1,2014-11-11T06:00:00Z,25.0720,-80.7350,1.5,42.5,1111122 
ENP,ioos.station.NOAA.NDBC:WRBF1:1,2014-11-11T07:00:00Z,25.0720,-80.7350,1.5,42.49,1111122 
ENP,ioos.station.NOAA.NDBC:WRBF1:1,2014-11-11T09:00:00Z,25.0720,-80.7350,1.5,42.47,1111122 
ENP,ioos.station.NOAA.NDBC:WRBF1:1,2014-11-11T10:00:00Z,25.0720,-80.7350,1.5,42.53,1111122 
ENP,ioos.station.NOAA.NDBC:WRBF1:1,2014-11-11T11:00:00Z,25.0720,-80.7350,1.5,42.54,1111122 
ENP,ioos.station.NOAA.NDBC:WRBF1:1,2014-11-11T13:00:00Z,25.0720,-80.7350,1.5,42.57,1111122 
ENP,ioos.station.NOAA.NDBC:WRBF1:1,2014-11-11T14:00:00Z,25.0720,-80.7350,1.5,42.58,1111122 
ENP,ioos.station.NOAA.NDBC:WRBF1:1,2014-11-11T15:00:00Z,25.0720,-80.7350,1.5,42.58,1111122 
ENP,ioos.station.NOAA.NDBC:WRBF1:1,2014-11-11T16:00:00Z,25.0720,-80.7350,1.5,42.59,1111122 
ENP,ioos.station.NOAA.NDBC:WRBF1:1,2014-11-11T17:00:00Z,25.0720,-80.7350,1.5,42.59,1111122 
ENP,ioos.station.NOAA.NDBC:WRBF1:1,2014-11-11T18:00:00Z,25.0720,-80.7350,1.5,42.58,1111122 
ENP,ioos.station.NOAA.NDBC:WRBF1:1,2014-11-11T19:00:00Z,25.0720,-80.7350,1.5,42.6,1111122 
ENP,ioos.station.NOAA.NDBC:WRBF1:1,2014-11-11T20:00:00Z,25.0720,-80.7350,1.5,42.62,1111122 
ENP,ioos.station.NOAA.NDBC:WRBF1:1,2014-11-11T21:00:00Z,25.0720,-80.7350,1.5,42.66,1111122 
ENP,ioos.station.NOAA.NDBC:WRBF1:1,2014-11-11T22:00:00Z,25.0720,-80.7350,1.5,42.67,1111122 
ENP,ioos.station.NOAA.NDBC:WRBF1:1,2014-11-11T23:00:00Z,25.0720,-80.7350,1.5,42.68,1111122 
ENP,ioos.station.NOAA.NDBC:WRBF1:1,2014-11-12T20:00:00Z,25.0720,-80.7350,1.5,42.62,1111122 
ENP,ioos.station.NOAA.NDBC:WRBF1:1,2014-11-12T21:00:00Z,25.0720,-80.7350,1.5,42.51,1111122 
ENP,ioos.station.NOAA.NDBC:WRBF1:1,2014-11-12T22:00:00Z,25.0720,-80.7350,1.5,42.43,1111122 
ENP,ioos.station.NOAA.NDBC:WRBF1:1,2014-11-13T00:00:00Z,25.0720,-80.7350,1.5,42.43,1111122 
ENP,ioos.station.NOAA.NDBC:WRBF1:1,2014-11-13T01:00:00Z,25.0720,-80.7350,1.5,42.46,1111122 
ENP,ioos.station.NOAA.NDBC:WRBF1:1,2014-11-13T02:00:00Z,25.0720,-80.7350,1.5,42.49,1111122 
ENP,ioos.station.NOAA.NDBC:WRBF1:1,2014-11-13T03:00:00Z,25.0720,-80.7350,1.5,42.51,1111122 
ENP,ioos.station.NOAA.NDBC:WRBF1:1,2014-11-13T05:00:00Z,25.0720,-80.7350,1.5,42.54,1111122 
ENP,ioos.station.NOAA.NDBC:WRBF1:1,2014-11-13T06:00:00Z,25.0720,-80.7350,1.5,42.53,1111122 
ENP,ioos.station.NOAA.NDBC:WRBF1:1,2014-11-13T07:00:00Z,25.0720,-80.7350,1.5,42.48,1111122 
ENP,ioos.station.NOAA.NDBC:WRBF1:1,2014-11-13T08:00:00Z,25.0720,-80.7350,1.5,42.49,1111122 
ENP,ioos.station.NOAA.NDBC:WRBF1:1,2014-11-13T09:00:00Z,25.0720,-80.7350,1.5,42.51,1111122 
ENP,ioos.station.NOAA.NDBC:WRBF1:1,2014-11-13T10:00:00Z,25.0720,-80.7350,1.5,42.56,1111122 
ENP,ioos.station.NOAA.NDBC:WRBF1:1,2014-11-13T11:00:00Z,25.0720,-80.7350,1.5,42.61,1111122 
ENP,ioos.station.NOAA.NDBC:WRBF1:1,2014-11-13T12:00:00Z,25.0720,-80.7350,1.5,42.61,1111122 
ENP,ioos.station.NOAA.NDBC:WRBF1:1,2014-11-13T13:00:00Z,25.0720,-80.7350,1.5,42.53,1111122 
ENP,ioos.station.NOAA.NDBC:WRBF1:1,2014-11-13T14:00:00Z,25.0720,-80.7350,1.5,42.47,1111122 
ENP,ioos.station.NOAA.NDBC:WRBF1:1,2014-11-13T16:00:00Z,25.0720,-80.7350,1.5,42.48,1111122 
ENP,ioos.station.NOAA.NDBC:WRBF1:1,2014-11-13T17:00:00Z,25.0720,-80.7350,1.5,42.34,1111122 
ENP,ioos.station.NOAA.NDBC:WRBF1:1,2014-11-13T18:00:00Z,25.0720,-80.7350,1.5,42.27,1111122 
ENP,ioos.station.NOAA.NDBC:WRBF1:1,2014-11-13T19:00:00Z,25.0720,-80.7350,1.5,42.27,1111122 
ENP,ioos.station.NOAA.NDBC:WRBF1:1,2014-11-13T22:00:00Z,25.0720,-80.7350,1.5,42.35,1111122 
ENP,ioos.station.NOAA.NDBC:WRBF1:1,2014-11-13T23:00:00Z,25.0720,-80.7350,1.5,42.31,1111122 
ENP,ioos.station.NOAA.NDBC:WRBF1:1,2014-11-14T00:00:00Z,25.0720,-80.7350,1.5,42.35,1111122 
ENP,ioos.station.NOAA.NDBC:WRBF1:1,2014-11-14T01:00:00Z,25.0720,-80.7350,1.5,42.38,1111122 
ENP,ioos.station.NOAA.NDBC:WRBF1:1,2014-11-14T02:00:00Z,25.0720,-80.7350,1.5,42.44,1111122 
ENP,ioos.station.NOAA.NDBC:WRBF1:1,2014-11-14T03:00:00Z,25.0720,-80.7350,1.5,42.46,1111122 
ENP,ioos.station.NOAA.NDBC:WRBF1:1,2014-11-14T05:00:00Z,25.0720,-80.7350,1.5,42.49,1111122 
ENP,ioos.station.NOAA.NDBC:WRBF1:1,2014-11-14T06:00:00Z,25.0720,-80.7350,1.5,42.51,1111122 
ENP,ioos.station.NOAA.NDBC:WRBF1:1,2014-11-14T07:00:00Z,25.0720,-80.7350,1.5,42.53,1111122 
ENP,ioos.station.NOAA.NDBC:WRBF1:1,2014-11-14T09:00:00Z,25.0720,-80.7350,1.5,42.39,1111122 
ENP,ioos.station.NOAA.NDBC:WRBF1:1,2014-11-14T10:00:00Z,25.0720,-80.7350,1.5,42.4,1111122 
ENP,ioos.station.NOAA.NDBC:WRBF1:1,2014-11-14T11:00:00Z,25.0720,-80.7350,1.5,42.42,1111122 
ENP,ioos.station.NOAA.NDBC:WRBF1:1,2014-11-14T13:00:00Z,25.0720,-80.7350,1.5,42.43,1111122 
ENP,ioos.station.NOAA.NDBC:WRBF1:1,2014-11-14T14:00:00Z,25.0720,-80.7350,1.5,42.42,1111122 
ENP,ioos.station.NOAA.NDBC:WRBF1:1,2014-11-14T16:00:00Z,25.0720,-80.7350,1.5,42.36,1111122 
ENP,ioos.station.NOAA.NDBC:WRBF1:1,2014-11-14T17:00:00Z,25.0720,-80.7350,1.5,42.27,1111122 
ENP,ioos.station.NOAA.NDBC:WRBF1:1,2014-11-14T18:00:00Z,25.0720,-80.7350,1.5,42.24,1111122 
ENP,ioos.station.NOAA.NDBC:WRBF1:1,2014-11-14T19:00:00Z,25.0720,-80.7350,1.5,42.3,1111122 
ENP,ioos.station.NOAA.NDBC:WRBF1:1,2014-11-14T21:00:00Z,25.0720,-80.7350,1.5,42.32,1111122 
ENP,ioos.station.NOAA.NDBC:WRBF1:1,2014-11-14T22:00:00Z,25.0720,-80.7350,1.5,42.34,1111122 
ENP,ioos.station.NOAA.NDBC:WRBF1:1,2014-11-15T00:00:00Z,25.0720,-80.7350,1.5,42.46,1111122 
ENP,ioos.station.NOAA.NDBC:WRBF1:1,2014-11-15T01:00:00Z,25.0720,-80.7350,1.5,42.56,1111122 
ENP,ioos.station.NOAA.NDBC:WRBF1:1,2014-11-15T02:00:00Z,25.0720,-80.7350,1.5,42.62,1111122 
ENP,ioos.station.NOAA.NDBC:WRBF1:1,2014-11-15T03:00:00Z,25.0720,-80.7350,1.5,42.56,1111122 
ENP,ioos.station.NOAA.NDBC:WRBF1:1,2014-11-15T05:00:00Z,25.0720,-80.7350,1.5,42.41,1111122 
ENP,ioos.station.NOAA.NDBC:WRBF1:1,2014-11-15T06:00:00Z,25.0720,-80.7350,1.5,42.39,1111122 
ENP,ioos.station.NOAA.NDBC:WRBF1:1,2014-11-15T07:00:00Z,25.0720,-80.7350,1.5,42.3,1111122 
ENP,ioos.station.NOAA.NDBC:WRBF1:1,2014-11-15T09:00:00Z,25.0720,-80.7350,1.5,42.24,1111122 
ENP,ioos.station.NOAA.NDBC:WRBF1:1,2014-11-15T10:00:00Z,25.0720,-80.7350,1.5,42.29,1111122 
ENP,ioos.station.NOAA.NDBC:WRBF1:1,2014-11-15T11:00:00Z,25.0720,-80.7350,1.5,42.31,1111122 
ENP,ioos.station.NOAA.NDBC:WRBF1:1,2014-11-15T12:00:00Z,25.0720,-80.7350,1.5,42.43,1111122 
ENP,ioos.station.NOAA.NDBC:WRBF1:1,2014-11-15T13:00:00Z,25.0720,-80.7350,1.5,42.52,1111122 
ENP,ioos.station.NOAA.NDBC:WRBF1:1,2014-11-15T14:00:00Z,25.0720,-80.7350,1.5,42.53,1111122 
ENP,ioos.station.NOAA.NDBC:WRBF1:1,2014-11-15T15:00:00Z,25.0720,-80.7350,1.5,42.56,1111122 